Queralbs





Hora UTC 17:05
Temperatura 2.9 ºC
Humedad 63.0 %
Presión 1013.7 hPa
Pluja 0.0 mm
Velocidad viento 0.0 km/h
Dirección viento SSE
Radiación solar 0.0 W/m²

Datos diarios 2021-12-04



Hora UTC (invierno +1h; verano +2h)
Temperatura (ºC) Humedad (%) Presión (hPa) Velocidad viento (km/h) Precipitación (mm) Radiación solar (W/m²)
Hora UTC Aire Humedad Presión Vel. Dir. Vel. Max Dir. Intent. máx 5 min. Rad. Sol.
00:00 4.6 55.0 1019.9 0.0 NE 0.0 0.0 0.0
00:05 4.4 55.0 1019.8 0.0 NE 1.6 0.0 0.0
00:10 4.6 54.0 1019.7 0.0 NE 1.6 0.0 0.0
00:15 4.6 54.0 1019.9 3.2 NE 3.2 0.0 0.0
00:20 4.7 55.0 1019.9 1.6 NE 3.2 0.0 0.0
00:25 4.7 55.0 1019.8 3.2 NE 4.8 0.0 0.0
00:30 4.8 55.0 1019.9 4.8 SSE 4.8 0.0 0.0
00:35 4.7 55.0 1019.8 4.8 SW 6.4 0.0 0.0
00:40 4.8 54.0 1019.7 1.6 W 9.7 0.0 0.0
00:45 4.9 54.0 1019.6 0.0 W 9.7 0.0 0.0
00:50 5.0 54.0 1019.5 0.0 W 3.2 0.0 0.0
00:55 5.1 54.0 1019.4 1.6 W 1.6 0.0 0.0
01:00 5.2 54.0 1019.3 0.0 W 1.6 0.0 0.0
01:05 5.1 54.0 1019.1 0.0 W 3.2 0.0 0.0
01:10 4.9 54.0 1019.0 1.6 W 3.2 0.0 0.0
01:15 4.8 54.0 1019.0 0.0 W 3.2 0.0 0.0
01:20 4.7 55.0 1019.0 1.6 W 4.8 0.0 0.0
01:25 4.6 55.0 1018.9 0.0 W 4.8 0.0 0.0
01:30 4.6 55.0 1018.9 1.6 W 1.6 0.0 0.0
01:35 4.6 56.0 1018.9 0.0 W 6.4 0.0 0.0
01:40 4.6 56.0 1018.8 1.6 W 6.4 0.0 0.0
01:45 4.4 55.0 1019.0 0.0 W 4.8 0.0 0.0
01:50 4.3 57.0 1018.9 0.0 W 3.2 0.0 0.0
02:00 4.3 57.0 1019.0 0.0 W 3.2 0.0 0.0
02:05 4.2 57.0 1018.9 0.0 W 3.2 0.0 0.0
02:10 4.2 57.0 1018.8 1.6 W 4.8 0.0 0.0
02:15 4.2 58.0 1018.7 4.8 W 6.4 0.0 0.0
02:20 4.4 57.0 1018.6 3.2 WNW 9.7 0.0 0.0
02:25 4.6 57.0 1018.6 0.0 WNW 9.7 0.0 0.0
02:30 4.4 57.0 1018.7 0.0 WNW 4.8 0.0 0.0
02:35 4.4 57.0 1018.6 0.0 WNW 3.2 0.0 0.0
02:40 4.3 57.0 1018.4 0.0 WNW 0.0 0.0 0.0
02:45 4.2 57.0 1018.3 0.0 WNW 0.0 0.0 0.0
02:50 4.1 58.0 1018.2 1.6 WNW 3.2 0.0 0.0
02:55 3.9 58.0 1018.1 1.6 WNW 6.4 0.0 0.0
03:00 3.9 58.0 1017.9 0.0 WNW 6.4 0.0 0.0
03:05 3.8 58.0 1017.9 0.0 WNW 1.6 0.0 0.0
03:10 3.7 59.0 1017.8 3.2 WNW 3.2 0.0 0.0
03:15 3.6 59.0 1017.7 0.0 WNW 3.2 0.0 0.0
03:20 3.5 59.0 1017.7 0.0 WNW 1.6 0.0 0.0
03:25 3.4 60.0 1017.8 0.0 WNW 0.0 0.0 0.0
03:30 3.4 60.0 1017.8 0.0 WNW 0.0 0.0 0.0
03:35 3.5 60.0 1017.9 0.0 WNW 1.6 0.0 0.0
03:40 3.6 60.0 1017.8 3.2 WNW 4.8 0.0 0.0
03:45 3.6 60.0 1017.7 1.6 WNW 4.8 0.0 0.0
03:50 3.6 59.0 1017.8 0.0 WNW 4.8 0.0 0.0
03:55 3.3 60.0 1017.6 3.2 WNW 4.8 0.0 0.0
03:55 3.2 61.0 1017.6 3.2 WNW 6.4 0.0 0.0
04:05 3.2 61.0 1017.5 0.0 WNW 6.4 0.0 0.0
04:10 3.3 62.0 1017.4 0.0 WNW 1.6 0.0 0.0
04:15 3.3 61.0 1017.3 0.0 WNW 4.8 0.0 0.0
04:20 3.3 61.0 1017.1 0.0 WNW 4.8 0.0 0.0
04:25 3.3 61.0 1017.1 1.6 N 8.0 0.0 0.0
04:30 3.2 61.0 1016.9 1.6 N 8.0 0.0 0.0
04:35 3.2 61.0 1016.9 0.0 N 3.2 0.0 0.0
04:40 3.2 62.0 1016.7 1.6 N 3.2 0.0 0.0
04:45 3.3 61.0 1016.7 3.2 NNW 4.8 0.0 0.0
04:50 3.3 61.0 1016.5 0.0 NNW 4.8 0.0 0.0
04:55 3.3 61.0 1016.4 1.6 NNW 4.8 0.0 0.0
05:00 3.2 61.0 1016.6 0.0 NNW 4.8 0.0 0.0
05:05 3.1 62.0 1016.6 0.0 NNW 1.6 0.0 0.0
05:10 3.2 62.0 1016.6 3.2 NNW 4.8 0.0 0.0
05:15 3.3 61.0 1016.5 1.6 NW 6.4 0.0 0.0
05:20 3.2 61.0 1016.4 0.0 NW 4.8 0.0 0.0
05:25 3.0 61.0 1016.3 0.0 NW 1.6 0.0 0.0
05:30 2.8 62.0 1016.3 0.0 NW 1.6 0.0 0.0
05:35 2.8 62.0 1016.5 1.6 NW 3.2 0.0 0.0
05:40 2.7 62.0 1016.8 4.8 SW 6.4 0.0 0.0
05:45 2.5 63.0 1016.9 0.0 SW 6.4 0.0 0.0
05:50 2.3 63.0 1016.8 0.0 SW 3.2 0.0 0.0
05:55 2.2 62.0 1016.8 4.8 E 4.8 0.0 0.0
06:00 1.9 63.0 1016.8 0.0 E 6.4 0.0 0.0
06:05 1.8 64.0 1016.7 3.2 SSW 6.4 0.0 0.0
06:05 1.8 64.0 1016.6 1.6 SSW 6.4 0.0 0.0
06:15 1.6 63.0 1016.7 0.0 SSW 3.2 0.0 0.0
06:20 1.3 64.0 1016.8 0.0 W 11.3 0.0 0.0
06:25 1.2 65.0 1017.1 0.0 W 11.3 0.0 0.0
06:30 0.9 65.0 1017.1 0.0 W 4.8 0.0 0.0
06:35 0.8 65.0 1017.0 0.0 W 3.2 0.0 0.0
06:40 0.6 65.0 1016.8 0.0 W 0.0 0.0 0.0
06:40 0.5 66.0 1016.9 0.0 W 0.0 0.0 0.0
06:45 0.4 66.0 1016.7 1.6 W 3.2 0.0 0.0
06:50 0.6 66.0 1016.8 3.2 W 3.2 0.0 0.0
06:55 0.7 66.0 1016.7 0.0 W 4.8 0.0 0.0
07:00 0.7 65.0 1016.8 0.0 W 3.2 0.0 0.0
07:05 0.7 65.0 1016.7 0.0 W 1.6 0.0 0.0
07:10 0.6 65.0 1016.7 0.0 W 0.0 0.0 0.0
07:15 0.5 65.0 1016.8 0.0 W 0.0 0.0 0.0
07:20 0.4 65.0 1016.8 0.0 W 1.6 0.0 0.0
07:25 0.6 66.0 1016.8 0.0 W 1.6 0.0 0.0
07:30 0.6 66.0 1016.6 0.0 W 0.0 0.0 0.0
07:35 0.7 66.0 1016.6 0.0 W 0.0 0.0 0.0
07:40 0.8 66.0 1016.6 0.0 W 1.6 0.0 0.0
07:45 0.8 66.0 1016.6 0.0 W 1.6 0.0 0.0
07:50 0.9 66.0 1016.5 0.0 W 1.6 0.0 0.0
07:55 1.2 66.0 1016.3 1.6 W 3.2 0.0 0.0
08:00 1.3 65.0 1016.4 0.0 W 3.2 0.0 0.0
08:05 1.7 66.0 1016.3 0.0 W 3.2 0.0 0.0
08:10 2.3 66.0 1016.2 0.0 W 3.2 0.0 0.0
08:15 3.1 64.0 1016.1 0.0 W 0.0 0.0 0.0
08:25 3.7 62.0 1016.1 0.0 W 0.0 0.0 0.0
08:30 4.3 61.0 1016.2 1.6 W 1.6 0.0 0.0
08:35 4.9 59.0 1016.0 3.2 W 3.2 0.0 0.0
08:40 5.4 58.0 1016.0 3.2 W 3.2 0.0 0.0
08:45 5.8 57.0 1016.1 0.0 W 4.8 0.0 0.0
08:50 6.1 55.0 1016.0 3.2 W 3.2 0.0 0.0
08:55 6.4 57.0 1016.2 0.0 WSW 4.8 0.0 0.0
09:00 6.7 56.0 1016.0 1.6 WSW 3.2 0.0 0.0
09:05 7.1 54.0 1016.1 1.6 WSW 3.2 0.0 0.0
09:10 7.6 54.0 1015.9 1.6 WSW 3.2 0.0 0.0
09:15 7.8 51.0 1015.8 1.6 WSW 3.2 0.0 0.0
09:20 8.1 52.0 1015.7 3.2 SW 4.8 0.0 0.0
09:25 8.3 49.0 1015.8 4.8 SSW 6.4 0.0 0.0
09:30 8.2 50.0 1015.9 1.6 SSW 6.4 0.0 0.0
09:35 8.0 50.0 1016.0 3.2 SSW 3.2 0.0 0.0
09:40 7.9 50.0 1016.0 1.6 SSW 4.8 0.0 0.0
09:45 7.9 51.0 1016.0 1.6 SSW 4.8 0.0 0.0
09:50 8.1 50.0 1016.0 0.0 SSW 6.4 0.0 0.0
09:55 8.1 51.0 1015.8 0.0 SSW 4.8 0.0 0.0
10:00 8.3 50.0 1015.7 4.8 SSW 4.8 0.0 0.0
10:05 8.8 49.0 1015.5 6.4 S 6.4 0.0 0.0
10:10 9.2 49.0 1015.6 1.6 S 6.4 0.0 0.0
10:15 9.4 48.0 1015.6 4.8 S 6.4 0.0 0.0
10:20 9.4 47.0 1015.5 1.6 S 6.4 0.0 0.0
10:25 9.6 46.0 1015.5 3.2 S 6.4 0.0 0.0
10:30 9.5 46.0 1015.2 1.6 S 3.2 0.0 0.0
10:35 9.4 47.0 1015.2 1.6 S 4.8 0.0 0.0
10:40 9.6 47.0 1015.1 1.6 S 4.8 0.0 0.0
10:45 9.7 46.0 1015.0 3.2 S 4.8 0.0 0.0
10:50 9.6 46.0 1015.0 3.2 S 3.2 0.0 0.0
10:55 9.5 47.0 1015.0 3.2 S 3.2 0.0 0.0
11:00 9.6 47.0 1015.1 1.6 S 3.2 0.0 0.0
11:05 9.6 48.0 1015.2 3.2 S 3.2 0.0 0.0
11:10 9.7 47.0 1015.1 1.6 S 3.2 0.0 0.0
11:15 9.7 46.0 1015.1 3.2 S 4.8 0.0 0.0
11:20 9.6 48.0 1015.0 1.6 S 4.8 0.0 0.0
11:25 9.6 46.0 1014.9 0.0 S 4.8 0.0 0.0
11:30 9.2 46.0 1014.7 0.0 S 4.8 0.0 0.0
11:30 9.0 47.0 1014.6 4.8 S 6.4 0.0 0.0
11:35 8.6 48.0 1014.8 3.2 S 6.4 0.0 0.0
11:40 8.2 48.0 1014.6 1.6 S 3.2 0.0 0.0
11:45 7.9 49.0 1014.5 0.0 S 4.8 0.0 0.0
11:50 7.7 50.0 1014.5 3.2 WSW 4.8 0.0 0.0
11:55 7.6 50.0 1014.6 0.0 WSW 6.4 0.0 0.0
12:00 7.4 50.0 1014.6 3.2 S 8.0 0.0 0.0
12:05 6.9 51.0 1014.3 1.6 S 8.0 0.0 0.0
12:10 6.4 53.0 1014.2 1.6 S 4.8 0.0 0.0
12:15 6.1 54.0 1014.2 0.0 S 3.2 0.0 0.0
12:20 6.0 55.0 1013.7 0.0 S 3.2 0.0 0.0
12:25 5.9 56.0 1013.4 0.0 S 4.8 0.0 0.0
12:30 6.0 56.0 1013.4 0.0 S 4.8 0.0 0.0
12:35 6.2 56.0 1013.4 0.0 S 3.2 0.0 0.0
12:40 6.4 56.0 1013.4 0.0 S 6.4 0.0 0.0
12:45 6.6 56.0 1013.4 3.2 S 6.4 0.0 0.0
12:50 6.6 55.0 1013.8 3.2 S 4.8 0.0 0.0
12:55 6.6 55.0 1014.0 4.8 S 6.4 0.0 0.0
13:00 6.4 54.0 1013.8 4.8 S 6.4 0.0 0.0
13:05 6.3 55.0 1013.4 4.8 S 6.4 0.0 0.0
13:10 6.0 56.0 1013.4 0.0 S 9.7 0.0 0.0
13:15 5.8 57.0 1013.7 1.6 SE 11.3 0.0 0.0
13:20 5.6 57.0 1013.7 0.0 SSE 11.3 0.0 0.0
13:25 5.4 57.0 1013.8 1.6 SSE 9.7 0.0 0.0
13:30 5.3 58.0 1014.0 1.6 SSE 8.0 0.0 0.0
13:35 5.3 58.0 1014.0 0.0 SSE 8.0 0.0 0.0
13:40 5.3 58.0 1014.0 0.0 SSE 4.8 0.0 0.0
13:45 5.2 58.0 1014.0 0.0 SSE 3.2 0.0 0.0
13:50 5.3 58.0 1014.0 0.0 SSE 4.8 0.0 0.0
13:55 5.4 58.0 1013.9 1.6 SSE 4.8 0.0 0.0
14:00 5.4 58.0 1013.8 3.2 SSE 4.8 0.0 0.0
14:05 5.6 57.0 1013.6 4.8 SSE 4.8 0.0 0.0
14:10 5.8 57.0 1013.5 3.2 SSE 6.4 0.0 0.0
14:15 6.1 57.0 1013.5 3.2 SSE 6.4 0.0 0.0
14:20 6.3 56.0 1013.4 0.0 SSE 4.8 0.0 0.0
14:25 6.3 56.0 1013.4 0.0 SSE 8.0 0.0 0.0
14:30 6.4 55.0 1013.4 3.2 SSE 8.0 0.0 0.0
14:35 6.4 56.0 1013.5 8.0 SSE 8.0 0.0 0.0
14:40 6.3 55.0 1013.3 1.6 SSE 8.0 0.0 0.0
14:45 6.2 56.0 1013.4 0.0 SSE 8.0 0.0 0.0
14:50 6.1 56.0 1013.4 1.6 SSE 4.8 0.0 0.0
14:55 5.9 57.0 1013.3 0.0 SSE 4.8 0.0 0.0
15:00 5.9 57.0 1013.5 0.0 SSE 4.8 0.0 0.0
15:05 5.8 57.0 1013.3 0.0 SSE 3.2 0.0 0.0
15:10 5.8 57.0 1013.5 0.0 SSE 1.6 0.0 0.0
15:15 5.8 57.0 1013.7 1.6 SSE 1.6 0.0 0.0
15:20 5.8 57.0 1013.8 0.0 SSE 3.2 0.0 0.0
15:25 5.8 57.0 1013.7 0.0 SSE 3.2 0.0 0.0
15:30 5.8 57.0 1013.9 0.0 SSE 3.2 0.0 0.0
15:35 5.8 56.0 1013.7 0.0 SSE 1.6 0.0 0.0
15:40 5.7 57.0 1013.6 1.6 SSE 1.6 0.0 0.0
15:45 5.6 57.0 1013.6 3.2 SSE 4.8 0.0 0.0
15:55 5.4 57.0 1013.5 1.6 SSE 4.8 0.0 0.0
15:55 5.1 57.0 1013.6 1.6 SSE 3.2 0.0 0.0
16:05 5.0 58.0 1013.7 0.0 SSE 3.2 0.0 0.0
16:10 4.8 58.0 1013.7 3.2 SSE 3.2 0.0 0.0
16:15 4.6 58.0 1013.8 0.0 SSE 3.2 0.0 0.0
16:20 4.4 60.0 1014.0 1.6 SSE 3.2 0.0 0.0
16:25 4.2 60.0 1014.1 1.6 SSE 3.2 0.0 0.0
16:30 3.9 61.0 1014.0 1.6 SSE 3.2 0.0 0.0
16:35 3.7 61.0 1013.9 0.0 SSE 3.2 0.0 0.0
16:40 3.5 61.0 1014.1 0.0 SSE 3.2 0.0 0.0
16:45 3.3 61.0 1014.1 0.0 SSE 1.6 0.0 0.0
16:50 3.2 62.0 1014.1 0.0 SSE 3.2 0.0 0.0
16:55 3.1 62.0 1013.9 0.0 SSE 4.8 0.0 0.0
17:00 3.1 63.0 1013.8 0.0 SSE 4.8 0.0 0.0
17:05 2.9 63.0 1013.7 0.0 SSE 0.0 0.0 0.0
Máxima 9.8 66.0 1019.9 8.0 SSE 11.3 0.0 0.0
Mínima 0.4 46.0 1013.3
Total 0.0